星链-2438 (STARLINK-2438 )

导读 | 豆包AI

STARLINK-2438是美国SpaceX公司星链低轨互联网星座的一员,于2021年4月7日由猎鹰9号火箭成功发射。它属于星链V1版本,重量约260kg,运行在近地轨道,配备氪工质霍尔推进器与自主避撞系统,依托星链星座为全球尤其是偏远地区提供高速宽带互联网服务,单星设计寿命超5年,退役后会主动离轨再入大气层焚毁,减少太空垃圾威胁。

Basic Information
目录编号:
48103
目录名称:
STARLINK-2438
国际标识:
2021-027M
轨道中心:
EARTH
卫星名称:
星链-2438
卫星全名:
星链-2438 (STARLINK-2438 )
卫星状态:
已陨落 最后检测时间 2024-07-17
发射日期:
2021-04-07 UTC
国别 :
美国 (US)
星等 :
--
Orbit Information
数据来源 国际轨道数据
星历时间: 2024-07-18T04:31:42+0800
轨道信息已过期604天
半长轴: 6552.667km
偏心率: 0.0004658
轨道倾角: 53.023°
近地点辐角 334.773°
升交点赤经 234.362°
平近点角 174.197°
近地点: 171.479km
远地点: 177.585km
周期: 87.981分钟
每日圈数: 16.367248
Detailed Information
固有亮度:
5
最大亮度:
2.5
卫星平台:
Starlink V1.0
覆盖范围:
全球
运营商:
太空探索技术公司
运营商所在国:
美国
制造商(研发单位):
太空探索技术公司
制造商所在国:
美国
使用方式:
暂无
Satellite Introduction
星链(Starlink)计划是由太空探索技术公司(SpaceX)提出的一个巨型低轨卫星互联网星座项目,计划在2019年至2024年间在太空搭建由约1.2万颗卫星组成的“星链”网络,其中1584颗将部署在地球上空550千米处的近地轨道,并从2020年开始工作。该卫星仍在工作。